Location: Newark
(44.3681°N, 100.3364°W)
Time: 13:06:45
(UTC+00:00)

Vanguard 1 - Pass Details

Date: 27 February 2020
Orbit: 649 x 3833 km, 34.2° (Epoch: 07 April)

Event Time Altitude Azimuth Distance (km) Brightness Sun altitude
Rises 11:45:14 0° 212° (SSW) 7,472 14.2 -18.2°
Reaches altitude 10° 11:50:40 10° 204° (SSW) 6,700 14.0 -17.2°
Maximum altitude 12:10:26 38° 147° (SSE) 4,887 13.8 -13.7°
Drops below altitude 10° 12:27:42 10° 89° (E) 5,944 15.7 -10.6°
Sets 12:32:03 0° 81° (E) 6,595 16.3 -9.8°
